Starlink 31929

operational
NORAD ID: 59836 Int'l Des: 2024-097 Owner: SPXS Country: US Constellation: starlink
LEOCIRCULAR

关于 Starlink 31929

正在加载描述...

实时位置

正在加载3D地球...

即将过境

高度历史

Altitude vs Time

uPlot chart will show altitude changes over time

两行轨道根数

1 59836U 24097B 25306.18856115 .00000366 00000-0 22844-4 0 9993
2 59836 43.0047 274.7260 0002048 280.6126 79.4495 15.27581861 82415
Epoch: Nov 2, 2025 • Age: 15 hours

当前状态

高度 487.5 km
速度 7.63 km/s
星下点 42.58°N, 44.33°E
发射日期 May 23, 2024
运行时间 1.4 years
类型 internet

技术详情

分类 Payload
质量 730.00 kg
干质量 700.00 kg
总质量 730.00 kg
长度 0.30 m
直径 4.10 m
跨度 29.00 m
形状 Box + pan
制造商 SPXS
平台类型 Starlink V2M
阶段状态 In Orbit
所有者/国家 SPXS/US

大型星座

Loading constellations...